FW2980 Weather Reports


time (UTC)temp
C
wind
direction
speed
KPH
gust
KPH
rain 1hr
cm
rain 24hr
cm
rain mn
cm
humidity
%
barometer
mb
20260906190014 26 360 12.9 22.5 0.00 0.00 0.00 55 1016.9
20260906184513 27 360 11.3 35.4 0.00 0.00 0.00 54 1017.2
20260906183011 27 360 9.7 20.9 0.00 0.00 0.00 52 1016.7
20260906181511 27 360 6.4 14.5 0.00 0.00 0.00 53 1016.7
20260906180010 27 355 8.0 14.5 0.00 0.00 0.00 53 1016.7
20260906174508 27 360 6.4 12.9 0.00 0.03 0.00 55 1016.4
20260906173004 26 360 6.4 14.5 0.00 0.03 0.00 55 1016.4
20260906171501 26 270 14.5 22.5 0.00 0.03 0.00 56 1016.7
20260906170109 26 277 8.0 12.9 0.00 0.03 0.00 56 1016.8
20260906164556 26 262 0.0 8.0 0.00 0.10 0.00 57 1017.0
20260906163053 26 360 1.6 9.7 0.00 0.10 0.00 57 1016.7
20260906161551 26 360 3.2 9.7 0.00 0.10 0.00 58 1016.6
20260906160048 26 183 4.8 12.9 0.00 0.10 0.00 58 1016.4
20260906154545 26 191 4.8 11.3 0.00 0.10 0.00 58 1017.0
20260906153043 26 360 3.2 16.1 0.00 0.10 0.00 59 1016.4
20260906151550 26 200 1.6 8.0 0.00 0.10 0.00 60 1016.3
20260906150042 25 217 1.6 4.8 0.00 0.10 0.00 60 1016.4
20260906144540 25 217 0.0 8.0 0.00 0.10 0.00 60 1016.6
20260906143036 25 183 1.6 8.0 0.00 0.10 0.00 60 1016.3
20260906141536 25 360 4.8 14.5 0.00 0.10 0.00 64 1016.0
20260906140035 25 360 3.2 9.7 0.00 0.10 0.00 65 1015.8
20260906134534 25 360 4.8 16.1 0.00 0.10 0.00 65 1015.7
20260906133036 25 184 8.0 16.1 0.00 0.10 0.00 65 1016.1
20260906131530 25 360 6.4 14.5 0.00 0.10 0.00 65 1015.9
20260906130027 25 360 6.4 14.5 0.00 0.10 0.00 65 1015.8
20260906124530 25 360 8.0 17.7 0.00 0.10 0.00 66 1015.8
20260906123032 25 360 4.8 12.9 0.00 0.10 0.00 65 1015.6
20260906121518 25 360 4.8 9.7 0.00 0.10 0.00 65 1015.7
20260906120015 25 360 4.8 12.9 0.00 0.10 0.00 65 1015.4
20260906114518 25 360 9.7 16.1 0.00 0.10 0.00 66 1015.2
20260906113014 25 360 8.0 17.7 0.00 0.10 0.00 66 1015.1
20260906111512 25 360 4.8 12.9 0.00 0.10 0.00 66 1015.1
20260906110011 25 360 4.8 16.1 0.00 0.10 0.00 65 1014.9
20260906104511 25 157 6.4 14.5 0.00 0.10 0.00 65 1014.9
20260906103019 25 360 6.4 12.9 0.00 0.10 0.00 64 1014.8
20260906101507 25 360 6.4 14.5 0.00 0.10 0.00 64 1014.9
20260906100019 25 172 4.8 14.5 0.00 0.10 0.00 64 1014.8
20260906094505 25 360 8.0 16.1 0.00 0.10 0.00 64 1014.6
20260906093002 25 360 6.4 12.9 0.00 0.10 0.00 64 1014.7
20260906091500 25 360 6.4 12.9 0.00 0.10 0.00 64 1014.9
20260906084559 25 360 4.8 8.0 0.00 0.10 0.00 63 1015.2
20260906083100 25 360 4.8 12.9 0.00 0.10 0.00 63 1015.1
20260906081556 25 360 4.8 12.9 0.00 0.10 0.00 63 1014.9
20260906080056 25 360 3.2 8.0 0.00 0.10 0.00 63 1014.9
20260906074554 25 360 4.8 8.0 0.00 0.10 0.00 63 1014.7
20260906073052 25 360 4.8 9.7 0.00 0.10 0.00 63 1014.7
20260906071551 25 360 3.2 8.0 0.00 0.10 0.00 63 1015.0
20260906070050 25 360 4.8 9.7 0.00 0.10 0.00 62 1014.9
20260906064549 25 360 4.8 8.0 0.00 0.10 0.00 62 1015.1
20260906063047 26 130 4.8 11.3 0.00 0.10 0.00 62 1015.0
20260906061547 26 360 4.8 8.0 0.00 0.10 0.00 62 1015.1
20260906060045 26 360 4.8 9.7 0.00 0.10 0.00 62 1015.2
20260906054544 26 360 1.6 6.4 0.00 0.10 0.00 62 1015.2
20260906053042 26 360 3.2 8.0 0.00 0.10 0.00 62 1015.1
20260906051641 26 360 3.2 9.7 0.00 0.10 0.00 62 1014.9
20260906050040 26 360 3.2 6.4 0.00 0.10 0.00 62 1015.0
20260906044542 26 360 3.2 6.4 0.00 0.10 0.10 61 1015.0
20260906043039 26 360 3.2 6.4 0.00 0.10 0.10 61 1015.1
20260906041536 26 360 3.2 6.4 0.00 0.10 0.10 61 1015.2
20260906040036 26 360 0.0 4.8 0.00 0.10 0.10 60 1015.4
20260906034536 26 360 1.6 6.4 0.00 0.10 0.10 59 1015.4
20260906033037 26 360 3.2 8.0 0.00 0.10 0.10 59 1015.0
20260906031534 27 360 3.2 8.0 0.00 0.10 0.10 58 1015.0
20260906030034 27 360 6.4 9.7 0.00 0.10 0.10 59 1014.6
20260906024536 27 360 4.8 9.7 0.00 0.10 0.10 58 1014.6
20260906023036 27 360 4.8 9.7 0.00 0.10 0.10 58 1014.7
20260906021540 27 360 3.2 12.9 0.00 0.10 0.10 58 1014.5
20260906020032 27 140 4.8 8.0 0.00 0.10 0.10 58 1014.2
20260906014536 27 360 4.8 9.7 0.00 0.10 0.10 57 1014.0
20260906013039 28 360 6.4 14.5 0.00 0.10 0.10 57 1013.8
20260906011533 28 360 4.8 9.7 0.00 0.10 0.10 57 1013.9
20260906010031 28 360 3.2 6.4 0.00 0.10 0.10 56 1014.0
20260906004529 28 360 4.8 9.7 0.00 0.10 0.10 55 1014.0
20260906003028 29 110 3.2 14.5 0.00 0.10 0.10 53 1013.9
20260906001527 30 360 3.2 14.5 0.00 0.10 0.10 52 1013.7
20260906000027 30 360 6.4 16.1 0.00 0.10 0.10 50 1013.5
20260905234525 31 100 9.7 17.7 0.00 0.10 0.10 49 1013.6
20260905233024 31 360 6.4 16.1 0.00 0.10 0.10 48 1013.4
20260905231522 32 360 11.3 17.7 0.00 0.10 0.10 46 1013.3
20260905230020 32 105 8.0 17.7 0.00 0.10 0.10 46 1013.1
20260905224524 32 152 9.7 19.3 0.00 0.10 0.10 44 1013.0
20260905223017 32 360 9.7 22.5 0.00 0.10 0.10 45 1012.9
20260905221515 32 360 12.9 25.7 0.00 0.10 0.10 43 1012.8
20260905220013 32 98 11.3 29.0 0.00 0.10 0.10 42 1012.7
20260905214513 32 360 16.1 22.5 0.00 0.10 0.10 41 1012.8
20260905213009 32 360 11.3 27.4 0.00 0.10 0.10 42 1012.8
20260905211506 32 360 12.9 27.4 0.00 0.10 0.10 40 1013.2
20260905210002 32 163 14.5 29.0 0.00 0.10 0.10 40 1012.8
20260905204558 32 360 11.3 29.0 0.00 0.10 0.10 42 1013.0
20260905203055 32 183 12.9 24.1 0.00 0.10 0.10 42 1012.9
20260905201554 32 360 14.5 32.2 0.00 0.10 0.10 41 1012.8
20260905200056 32 360 9.7 22.5 0.00 0.10 0.10 42 1012.8
20260905194553 31 360 9.7 19.3 0.00 0.10 0.10 42 1012.9
20260905193050 31 191 11.3 22.5 0.00 0.10 0.10 43 1012.8
20260905191546 29 181 11.3 25.7 0.00 0.10 0.10 42 1012.2